Regional Weather Roundup
Issued by NWS Sterling, VA

Home | Current Version | Previous Version | Graphics & Text | Print | Product List | Glossary On
Versions: 1 2 3 4 5 6 7 8 9 10 11 12 13 14 15 16 17 18 19 20 21 22 23 24 25 26 27 28 29 30 31 32 33 34 35 36 37 38 39 40 41 42 43 44 45 46 47 48 49 50
000
ASUS41 KLWX 270610
RWRLWX

REGIONAL WEATHER ROUNDUP
NATIONAL WEATHER SERVICE BALTIMORE MD/WASHINGTON DC
200 AM EDT SUN JUL 27 2014

Note: "FAIR" indicates few or no clouds below 12,000 feet
with no significant weather and/or obstructions to visibility.
 TC=TEMPERATURE CELSIUS

 * =Non NWS site. Station does not report precipitation (e.g. rain,
    snow, etc.), thunder, or fog.

DCZ001-MDZ009-015-VAZ040>042-051-053>054-270700-
WASHINGTON METRO
  /KDAA//-FT BELVOIR

CITY           SKY/WX    TMP DP  RH WIND       PRES   REMARKS
WASHINGTON NAT CLOUDY    78  71  79 S7        29.85F
DULLES         CLOUDY    73  69  87 CALM      29.86F
ANDREWS AFB    CLOUDY    73  72  96 S6        29.85F
QUANTICO       CLOUDY    76  70  82 SW5       29.86F
COLLEGE PARK*  CLOUDY    79  72  78 CALM      29.85F
LEESBURG*      CLOUDY    73  72  94 CALM      29.88S
MANASSAS*      CLOUDY    73  73 100 CALM      29.85F
GAITHERSBURG*  CLOUDY    75  70  83 CALM      29.90F

$$

MDZ006>007-011-014-270700-
BALTIMORE METRO

CITY           SKY/WX    TMP DP  RH WIND       PRES   REMARKS
BWI AIRPORT    CLOUDY    74  71  91 CALM      29.85F
MD SCIENCE CTR   N/A     76  71  85 MISG      29.86F
MARTIN STATE   CLOUDY    77  73  88 SW3       29.87S
ANNAPOLIS      CLOUDY    77  70  79 CALM      29.85F
FORT MEADE*    CLOUDY    70  68  94 CALM      29.88F

$$

MDZ012-015-019>023-270700-
MARYLAND EASTERN SHORE

CITY           SKY/WX    TMP DP  RH WIND       PRES   REMARKS
OCEAN CITY     MOCLDY    75  71  87 S7        29.89F
SALISBURY      NOT AVBL
CAMBRIDGE*     CLOUDY    73  70  88 CALM      29.87S
EASTON*        CLOUDY    76  76 100 S6        29.90F

$$

MDZ017>025-270700-
SOUTHERN MARYLAND

CITY           SKY/WX    TMP DP  RH WIND       PRES   REMARKS
PATUXENT RIVER CLOUDY    75  71  87 S3        29.86F
ST INIGOES     LGT RAIN  76  71  85 S9        29.86F
LEONARDTOWN*   CLOUDY    73  70  88 CALM      29.88F

$$

MDZ003>005-270700-
NORTH CENTRAL MARYLAND

CITY           SKY/WX    TMP DP  RH WIND       PRES   REMARKS
FREDERICK*     CLOUDY    72  68  88 CALM      29.88F
HAGERSTOWN APT CLOUDY    71  68  90 SW7       29.87F
WESTMINSTER*   CLOUDY    73  70  88 SW3       29.88F

$$

MDZ501>502-270700-
WESTERN MARYLAND

CITY           SKY/WX    TMP DP  RH WIND       PRES   REMARKS
OAKLAND*       CLOUDY    59 N/A N/A SW8       30.02S HAZE
CUMBERLAND*    CLOUDY    68  66  94 SW5       29.95

$$

VAZ025>031-270700-
SHENANDOAH VALLEY

CITY           SKY/WX    TMP DP  RH WIND       PRES   REMARKS
WINCHESTER*    DRIZZLE   70  68  94 N3        29.91R
STAUNTON*      CLOUDY    69  66  92 CALM      29.93S THUNDER

$$

WVZ021-048>050-054>055-270700-
EASTERN WEST VIRGINIA PANHANDLE

CITY           SKY/WX    TMP DP  RH WIND       PRES   REMARKS
MARTINSBURG    CLOUDY    70  66  87 SW6       29.90S
PETERSBURG*    TSTM      65  60  85 N10       29.97R

$$

VAZ036>039-050-270700-
CENTRAL FOOTHILLS

CITY           SKY/WX    TMP DP  RH WIND       PRES   REMARKS
CHARLOTTESVILL CLOUDY    71  69  93 W3        29.87F
ORANGE*        CLOUDY    72  68  88 CALM      29.88F

$$

VAZ055>057-270700-
NORTH AND CENTRAL PIEDMONT

CITY           SKY/WX    TMP DP  RH WIND       PRES   REMARKS
FREDERICKSBRG* MOCLDY    75  73  92 S6        29.84F
STAFFORD*      MOCLDY    73  73 100 CALM      29.89F

$$

NCZ024-NYZ072-PAZ021-071-VAZ022-071-270700-
OTHER REGIONAL OBSERVATIONS

CITY           SKY/WX    TMP DP  RH WIND       PRES   REMARKS
NEW YORK CITY  PTCLDY    73  67  81 CALM      29.90F
PHILADELPHIA   PTCLDY    73  68  84 SE5       29.86F
PITTSBURGH     CLOUDY    68  66  93 S9        29.86F
ROANOKE        CLOUDY    78  62  57 W8        29.95F
RICHMOND       MOCLDY    77  71  82 S7        29.89F
RALEIGH        PTCLDY    74  68  81 SW8       29.95R

$$

ANZ530>537-270700-
MARINE OBSERVATIONS

STATION/POSITION TIME  TEMP    WIND        PRES
                       AIR SEA DIR/SP/G
                 (UTC) (F)     (DEG/KT/KT) (MB)
THOMAS PT LIGHT  0600   77 79  190/ 14/ 15 1011.3F
BALT KEY BRIDGE  0600   76     200/  7/  8 1010.6F
COVE POINT       0600   76     200/ 12/ 14 1011.2S
LEWISETTA        0600   76 80  210/  9/ 10 1011.0F
SOLOMONS ISLAND  0600      80                N/A
PINEY POINT      0600          220/  9/ 11   N/A

$$




USA.gov is the U.S. government's official web portal to all federal, state and local government web resources and services.